Home > Weather > Macau > Past weeks

Flag for Macau Weather for the Past 2 Weeks in Macau, Macau

Now
84 °F

Scattered clouds.


Feels Like: 98 °F
Forecast: 78 / 85 °F
Wind: 12 mph from South

Location: Taipa

Current Time: May 6, 2016 at 4:31:40 PM

Latest Report: May 6, 2016 at 4:00 PM


Visibility: N/A

Pressure: 29.77 "Hg

Humidity: 89%

Dew Point: 81 °F

Location of MacauLocation

Historic Weather in Macau — Graph

°F

Macau Temperature Yesterday

Maximum temperature yesterday: 84 °F (at 12:30 PM)
Minimum temperature yesterday: 77 °F (at 12:00 AM)
Average temperature yesterday: 81 °F

High & Low Weather Summary for the Past Weeks

 TemperatureHumidityPressure
High86 °F (May 6, 11:00 AM)100% (Apr 21, 5:00 PM)29.98 "Hg (Apr 21, 5:00 PM)
Low68 °F (Apr 22, 8:30 AM)74% (Apr 28, 1:00 PM)29.68 "Hg (Apr 23, 6:00 PM)
Average77 °F92%29.82 "Hg
* Reported Apr 21 3:00 PM — May 6 3:30 PM, Macau, Weather by CustomWeather, © 2016

Note: Actual official high and low records may vary slightly from our data, if they occured in-between our weather recording intervals... More about our weather records

Advertising

Macau Weather History for the Previous 24 Hours

Scroll right to see more
 ConditionsComfort  
Time TempWeatherWind HumidityBarometerVisibility
3:30 PM
Fri, May 6
84 °FScattered clouds.13 mph89%29.77 "HgN/A
3:00 PM84 °FScattered clouds.13 mph89%29.77 "HgN/A
2:30 PM84 °FScattered clouds.13 mph89%29.80 "HgN/A
2:00 PM84 °FScattered clouds.14 mph89%29.80 "HgN/A
1:30 PM84 °FScattered clouds.12 mph89%29.83 "HgN/A
1:00 PM86 °FScattered clouds.13 mph84%29.83 "HgN/A
12:30 PM86 °FScattered clouds.12 mph84%29.83 "HgN/A
12:00 PM86 °FScattered clouds.15 mph84%29.83 "HgN/A
11:30 AM84 °FScattered clouds.13 mph89%29.86 "HgN/A
11:00 AM86 °FScattered clouds.13 mph84%29.86 "Hg6 mi
10:30 AM84 °FScattered clouds.12 mph89%29.86 "Hg5 mi
10:00 AM84 °FScattered clouds.12 mph84%29.86 "Hg4 mi
9:30 AM82 °FScattered clouds.10 mph89%29.83 "Hg4 mi
9:00 AM82 °FScattered clouds.7 mph89%29.83 "Hg4 mi
8:30 AM81 °FScattered clouds.8 mph94%29.83 "Hg4 mi
8:00 AM81 °FScattered clouds.9 mph94%29.83 "Hg4 mi
7:30 AM81 °FScattered clouds.7 mph94%29.83 "Hg4 mi
7:00 AM81 °FScattered clouds.7 mph94%29.80 "Hg4 mi
6:30 AM79 °FScattered clouds.8 mph100%29.80 "Hg4 mi
6:00 AM79 °FFog.7 mph100%29.77 "Hg3 mi
5:00 AM79 °FPassing clouds.7 mph100%29.77 "Hg4 mi
4:30 AM79 °FPassing clouds.8 mph100%29.77 "Hg4 mi
4:00 AM79 °FPassing clouds.7 mph100%29.77 "Hg4 mi
3:30 AM79 °FPassing clouds.7 mph100%29.77 "Hg4 mi
3:00 AM81 °FPassing clouds.10 mph94%29.77 "Hg4 mi
2:30 AM81 °FPassing clouds.9 mph94%29.77 "Hg4 mi
2:00 AM81 °FPassing clouds.12 mph94%29.77 "Hg4 mi
1:30 AM79 °FPassing clouds.10 mph100%29.77 "Hg5 mi
1:00 AM81 °FPassing clouds.12 mph94%29.77 "Hg5 mi
12:30 AM81 °FPassing clouds.9 mph94%29.80 "Hg4 mi
12:00 AM81 °FPassing clouds.10 mph94%29.80 "Hg4 mi
11:30 PM
Thu, May 5
81 °FPassing clouds.12 mph94%29.80 "Hg4 mi
11:00 PM81 °FPassing clouds.13 mph94%29.83 "Hg4 mi
10:30 PM81 °FPassing clouds.13 mph94%29.80 "Hg5 mi
10:00 PM81 °FPassing clouds.13 mph94%29.80 "Hg5 mi
9:30 PM81 °FPassing clouds.13 mph94%29.80 "Hg5 mi
9:00 PM81 °FPassing clouds.13 mph94%29.80 "Hg5 mi
8:30 PM81 °FPassing clouds.9 mph94%29.80 "Hg4 mi
8:00 PM81 °FPassing clouds.12 mph94%29.80 "Hg4 mi
7:30 PM81 °FPassing clouds.14 mph94%29.77 "Hg4 mi
7:00 PM81 °FFog.10 mph100%29.77 "Hg3 mi
6:30 PM81 °FScattered clouds.13 mph94%29.77 "Hg4 mi
6:00 PM82 °FScattered clouds.12 mph94%29.77 "Hg4 mi
5:30 PM82 °FScattered clouds.10 mph94%29.77 "Hg4 mi
5:00 PM82 °FScattered clouds.13 mph94%29.77 "Hg4 mi
4:30 PM82 °FScattered clouds.10 mph89%29.77 "Hg4 mi
4:00 PM82 °FScattered clouds.9 mph94%29.77 "Hg4 mi
Weather by CustomWeather, © 2016

See weather overviewHow to use our weather pages